Time,TemperatureF,DewpointF,PressureIn,WindDirection,WindDirectionDegrees,WindSpeedMPH,WindSpeedGustMPH,Humidity,HourlyPrecipIn,Conditions,Clouds,dailyrainin,SoftwareType,DateUTC
2013-03-21 00:00:00,54.5,27.4,30.01,SE,145,0.0,3.6,35,0.00,,---,0.00,VWS V14.00,2013-03-21 05:00:00,
2013-03-21 00:10:00,54.1,27.1,30.01,SE,144,0.0,3.1,35,0.00,,---,0.00,VWS V14.00,2013-03-21 05:10:00,
2013-03-21 00:20:00,54.1,27.8,30.01,SSE,147,0.0,5.4,36,0.00,,---,0.00,VWS V14.00,2013-03-21 05:20:00,
2013-03-21 00:30:00,54.5,28.1,30.01,SE,140,0.0,4.9,36,0.00,,---,0.00,VWS V14.00,2013-03-21 05:30:00,
2013-03-21 00:40:00,54.3,28.0,30.01,SE,140,0.0,3.6,36,0.00,,---,0.00,VWS V14.00,2013-03-21 05:40:00,
2013-03-21 00:50:00,53.8,27.5,30.01,SE,139,0.0,3.6,36,0.00,,---,0.00,VWS V14.00,2013-03-21 05:50:00,
2013-03-21 01:00:00,53.4,27.1,30.01,SE,140,0.0,3.6,36,0.00,,---,0.00,VWS V14.00,2013-03-21 06:00:00,
2013-03-21 01:10:00,53.2,27.0,30.01,ESE,115,0.0,4.9,36,0.00,,---,0.00,VWS V14.00,2013-03-21 06:10:00,
2013-03-21 01:20:00,53.6,27.3,29.98,SE,146,3.1,4.9,36,0.00,,---,0.00,VWS V14.00,2013-03-21 06:20:00,
2013-03-21 01:30:00,54.0,27.6,29.98,SSE,147,3.6,4.9,36,0.00,,---,0.00,VWS V14.00,2013-03-21 06:30:00,
2013-03-21 01:40:00,54.1,27.8,29.98,SE,140,4.9,5.8,36,0.00,,---,0.00,VWS V14.00,2013-03-21 06:40:00,
2013-03-21 01:50:00,54.1,27.8,29.98,SE,141,3.1,4.9,36,0.00,,---,0.00,VWS V14.00,2013-03-21 06:50:00,
2013-03-21 02:00:00,54.1,27.8,29.98,SSE,148,3.6,6.3,36,0.00,,---,0.00,VWS V14.00,2013-03-21 07:00:00,
2013-03-21 02:10:00,54.3,28.0,29.95,SSE,149,3.1,6.7,36,0.00,,---,0.00,VWS V14.00,2013-03-21 07:10:00,
2013-03-21 02:20:00,54.5,28.1,29.95,SE,143,3.6,7.4,36,0.00,,---,0.00,VWS V14.00,2013-03-21 07:20:00,
2013-03-21 02:30:00,54.5,28.1,29.95,SE,139,2.7,4.9,36,0.00,,---,0.00,VWS V14.00,2013-03-21 07:30:00,
2013-03-21 02:40:00,54.7,28.3,29.95,SSE,151,4.0,6.7,36,0.00,,---,0.00,VWS V14.00,2013-03-21 07:40:00,
2013-03-21 02:50:00,54.7,28.3,29.95,SE,135,0.0,5.4,36,0.00,,---,0.00,VWS V14.00,2013-03-21 07:50:00,
2013-03-21 03:00:00,54.9,28.4,29.95,SSE,152,5.4,8.3,36,0.00,,---,0.00,VWS V14.00,2013-03-21 08:00:00,
2013-03-21 03:10:00,54.9,28.4,29.95,SE,146,3.6,6.9,36,0.00,,---,0.00,VWS V14.00,2013-03-21 08:10:00,
2013-03-21 03:20:00,54.9,27.8,29.95,SSE,151,0.0,6.9,35,0.00,,---,0.00,VWS V14.00,2013-03-21 08:20:00,
2013-03-21 03:30:00,54.7,28.3,29.95,SE,138,0.0,5.8,36,0.00,,---,0.00,VWS V14.00,2013-03-21 08:30:00,
2013-03-21 03:40:00,54.5,28.1,29.92,SE,138,2.7,5.8,36,0.00,,---,0.00,VWS V14.00,2013-03-21 08:40:00,
2013-03-21 03:50:00,54.5,28.1,29.92,SE,144,3.1,5.8,36,0.00,,---,0.00,VWS V14.00,2013-03-21 08:50:00,
2013-03-21 04:00:00,54.7,28.3,29.92,SE,131,6.3,7.4,36,0.00,,---,0.00,VWS V14.00,2013-03-21 09:00:00,
2013-03-21 04:10:00,54.9,28.4,29.92,SE,133,3.6,6.3,36,0.00,,---,0.00,VWS V14.00,2013-03-21 09:10:00,
2013-03-21 04:20:00,55.0,28.6,29.92,South,182,4.5,6.7,36,0.00,,---,0.00,VWS V14.00,2013-03-21 09:20:00,
2013-03-21 04:30:00,55.0,28.6,29.92,SE,144,9.2,9.2,36,0.00,,---,0.00,VWS V14.00,2013-03-21 09:30:00,
2013-03-21 04:40:00,55.2,28.8,29.89,SSE,148,4.0,9.2,36,0.00,,---,0.00,VWS V14.00,2013-03-21 09:40:00,
2013-03-21 04:50:00,55.2,28.1,29.89,South,172,6.7,7.8,35,0.00,,---,0.00,VWS V14.00,2013-03-21 09:50:00,
2013-03-21 05:00:00,55.6,28.4,29.89,SSW,193,4.9,10.1,35,0.00,,---,0.00,VWS V14.00,2013-03-21 10:00:00,
2013-03-21 05:10:00,55.6,28.4,29.89,ESE,123,4.5,8.3,35,0.00,,---,0.00,VWS V14.00,2013-03-21 10:10:00,
2013-03-21 05:20:00,55.6,28.4,29.89,SSE,147,6.3,9.2,35,0.00,,---,0.00,VWS V14.00,2013-03-21 10:20:00,
2013-03-21 05:30:00,55.6,28.4,29.89,SE,128,4.0,9.2,35,0.00,,---,0.00,VWS V14.00,2013-03-21 10:30:00,
2013-03-21 05:40:00,55.6,28.4,29.89,ESE,121,4.0,6.9,35,0.00,,---,0.00,VWS V14.00,2013-03-21 10:40:00,
2013-03-21 05:50:00,55.8,28.5,29.89,South,172,7.4,7.8,35,0.00,,---,0.00,VWS V14.00,2013-03-21 10:50:00,
2013-03-21 06:00:00,55.9,28.7,29.89,South,177,5.4,10.1,35,0.00,,---,0.00,VWS V14.00,2013-03-21 11:00:00,
2013-03-21 06:10:00,56.1,28.9,29.89,SSE,149,6.3,11.6,35,0.00,,---,0.00,VWS V14.00,2013-03-21 11:10:00,
2013-03-21 06:20:00,55.9,28.7,29.89,SE,146,5.4,8.7,35,0.00,,---,0.00,VWS V14.00,2013-03-21 11:20:00,
2013-03-21 06:30:00,55.9,28.7,29.89,SSE,158,5.4,9.6,35,0.00,,---,0.00,VWS V14.00,2013-03-21 11:30:00,
2013-03-21 06:40:00,55.8,28.5,29.89,SSE,163,5.8,10.1,35,0.00,,---,0.00,VWS V14.00,2013-03-21 11:40:00,
2013-03-21 06:50:00,55.8,28.5,29.86,SSW,213,4.5,10.5,35,0.00,,---,0.00,VWS V14.00,2013-03-21 11:50:00,
2013-03-21 07:00:00,55.8,28.5,29.86,SSW,194,9.2,9.6,35,0.00,,---,0.00,VWS V14.00,2013-03-21 12:00:00,
2013-03-21 07:10:00,55.8,28.5,29.86,SE,139,4.5,9.2,35,0.00,,---,0.00,VWS V14.00,2013-03-21 12:10:00,
2013-03-21 07:20:00,55.9,28.7,29.86,SE,140,4.5,12.5,35,0.00,,---,0.00,VWS V14.00,2013-03-21 12:20:00,
2013-03-21 07:30:00,56.1,28.9,29.86,SSE,148,7.4,14.3,35,0.00,,---,0.00,VWS V14.00,2013-03-21 12:30:00,
2013-03-21 07:40:00,56.3,29.0,29.86,SSE,155,3.1,11.6,35,0.00,,---,0.00,VWS V14.00,2013-03-21 12:40:00,
2013-03-21 07:50:00,56.3,29.0,29.86,SE,132,5.8,11.0,35,0.00,,---,0.00,VWS V14.00,2013-03-21 12:50:00,
2013-03-21 08:00:00,56.3,29.0,29.86,South,176,6.3,13.0,35,0.00,,---,0.00,VWS V14.00,2013-03-21 13:00:00,
2013-03-21 08:10:00,56.3,29.0,29.86,ESE,122,6.7,9.6,35,0.00,,---,0.00,VWS V14.00,2013-03-21 13:10:00,
2013-03-21 08:20:00,56.3,29.7,29.86,South,181,4.9,12.1,36,0.00,,---,0.00,VWS V14.00,2013-03-21 13:20:00,
2013-03-21 08:30:00,56.1,29.5,29.86,NE,50,2.7,10.5,36,0.00,,---,0.00,VWS V14.00,2013-03-21 13:30:00,
2013-03-21 08:40:00,56.1,29.5,29.86,SSW,194,0.0,10.5,36,0.00,,---,0.00,VWS V14.00,2013-03-21 13:40:00,
2013-03-21 08:50:00,56.1,29.5,29.86,SSW,192,4.9,11.6,36,0.00,,---,0.00,VWS V14.00,2013-03-21 13:50:00,
2013-03-21 09:00:00,56.5,29.9,29.86,SSE,152,3.6,10.1,36,0.00,,---,0.00,VWS V14.00,2013-03-21 14:00:00,
2013-03-21 09:10:00,56.7,30.7,29.86,SE,136,6.9,9.6,37,0.00,,---,0.00,VWS V14.00,2013-03-21 14:10:00,
2013-03-21 09:20:00,57.0,31.7,29.86,SE,136,5.4,11.6,38,0.00,,---,0.00,VWS V14.00,2013-03-21 14:20:00,
2013-03-21 09:30:00,57.2,32.5,29.86,South,186,6.7,12.5,39,0.00,,---,0.00,VWS V14.00,2013-03-21 14:30:00,
2013-03-21 09:40:00,57.4,33.9,29.86,South,187,6.7,9.6,41,0.00,,---,0.00,VWS V14.00,2013-03-21 14:40:00,
2013-03-21 09:50:00,57.7,34.8,29.86,SE,146,10.5,10.5,42,0.00,,---,0.00,VWS V14.00,2013-03-21 14:50:00,
2013-03-21 10:00:00,58.3,35.3,29.86,South,169,7.4,13.0,42,0.00,,---,0.00,VWS V14.00,2013-03-21 15:00:00,
2013-03-21 10:10:00,58.6,36.2,29.83,South,183,5.4,13.0,43,0.00,,---,0.00,VWS V14.00,2013-03-21 15:10:00,
2013-03-21 10:20:00,59.5,37.6,29.83,South,179,8.7,15.2,44,0.00,,---,0.00,VWS V14.00,2013-03-21 15:20:00,
2013-03-21 10:30:00,60.4,38.4,29.83,SSW,206,6.3,12.5,44,0.00,,---,0.00,VWS V14.00,2013-03-21 15:30:00,
2013-03-21 10:40:00,61.0,38.9,29.83,SSW,197,6.7,12.1,44,0.00,,---,0.00,VWS V14.00,2013-03-21 15:40:00,
2013-03-21 10:50:00,61.5,40.0,29.80,South,188,8.7,12.5,45,0.00,,---,0.00,VWS V14.00,2013-03-21 15:50:00,
2013-03-21 11:00:00,62.1,40.5,29.80,South,174,9.2,13.9,45,0.00,,---,0.00,VWS V14.00,2013-03-21 16:00:00,
2013-03-21 11:10:00,62.8,41.7,29.80,SSW,212,10.5,14.8,46,0.00,,---,0.00,VWS V14.00,2013-03-21 16:10:00,
2013-03-21 11:20:00,63.3,42.2,29.80,South,174,8.3,14.3,46,0.00,,---,0.00,VWS V14.00,2013-03-21 16:20:00,
2013-03-21 11:30:00,63.9,42.7,29.80,SE,125,6.9,12.5,46,0.00,,---,0.00,VWS V14.00,2013-03-21 16:30:00,
2013-03-21 11:40:00,64.2,42.5,29.80,SW,216,9.2,14.8,45,0.00,,---,0.00,VWS V14.00,2013-03-21 16:40:00,
2013-03-21 11:50:00,64.6,43.4,29.78,West,260,8.3,16.3,46,0.00,,---,0.00,VWS V14.00,2013-03-21 16:50:00,
2013-03-21 12:00:00,65.8,44.5,29.78,SSW,199,6.3,14.3,46,0.00,,---,0.00,VWS V14.00,2013-03-21 17:00:00,
2013-03-21 12:10:00,66.7,45.3,29.78,SSW,212,7.8,15.2,46,0.00,,---,0.00,VWS V14.00,2013-03-21 17:10:00,
2013-03-21 12:20:00,67.6,45.0,29.75,SW,233,10.5,15.4,44,0.00,,---,0.00,VWS V14.00,2013-03-21 17:20:00,
2013-03-21 12:30:00,67.8,44.5,29.75,SSW,202,9.2,16.3,43,0.00,,---,0.00,VWS V14.00,2013-03-21 17:30:00,
2013-03-21 12:40:00,68.0,44.1,29.75,SW,217,11.0,19.0,42,0.00,,---,0.00,VWS V14.00,2013-03-21 17:40:00,
2013-03-21 12:50:00,68.4,43.8,29.75,SSW,212,11.6,24.4,41,0.00,,---,0.00,VWS V14.00,2013-03-21 17:50:00,
2013-03-21 13:00:00,69.3,45.2,29.75,SSW,202,10.5,15.9,42,0.00,,---,0.00,VWS V14.00,2013-03-21 18:00:00,
2013-03-21 13:10:00,69.1,45.0,29.72,SW,216,4.5,15.4,42,0.00,,---,0.00,VWS V14.00,2013-03-21 18:10:00,
2013-03-21 13:20:00,69.1,45.0,29.72,SSW,206,4.9,15.9,42,0.00,,---,0.00,VWS V14.00,2013-03-21 18:20:00,
2013-03-21 13:30:00,69.4,46.0,29.72,SW,229,9.6,14.3,43,0.00,,---,0.00,VWS V14.00,2013-03-21 18:30:00,
2013-03-21 13:40:00,69.8,45.7,29.69,SSE,156,9.6,17.2,42,0.00,,---,0.00,VWS V14.00,2013-03-21 18:40:00,
2013-03-21 13:50:00,69.6,45.5,29.69,SW,226,15.2,19.5,42,0.00,,---,0.00,VWS V14.00,2013-03-21 18:50:00,
2013-03-21 14:00:00,70.3,46.2,29.69,SSE,156,12.5,20.1,42,0.00,,---,0.00,VWS V14.00,2013-03-21 19:00:00,
2013-03-21 14:10:00,69.3,45.2,29.69,SSW,196,5.8,18.1,42,0.00,,---,0.00,VWS V14.00,2013-03-21 19:10:00,
2013-03-21 14:20:00,68.5,45.2,29.66,South,188,12.1,17.7,43,0.00,,---,0.00,VWS V14.00,2013-03-21 19:20:00,
2013-03-21 14:30:00,68.0,45.3,29.66,South,169,10.5,19.5,44,0.00,,---,0.00,VWS V14.00,2013-03-21 19:30:00,
2013-03-21 14:40:00,67.6,45.6,29.66,SSE,167,5.8,17.2,45,0.00,,---,0.00,VWS V14.00,2013-03-21 19:40:00,
2013-03-21 14:50:00,67.3,45.8,29.66,SSW,209,10.5,18.1,46,0.00,,---,0.00,VWS V14.00,2013-03-21 19:50:00,
2013-03-21 15:00:00,67.3,46.4,29.66,SW,219,15.2,15.4,47,0.00,,---,0.00,VWS V14.00,2013-03-21 20:00:00,
2013-03-21 15:10:00,67.1,46.8,29.63,SSW,197,5.4,17.7,48,0.00,,---,0.00,VWS V14.00,2013-03-21 20:10:00,
2013-03-21 15:20:00,67.1,47.9,29.63,SSW,198,5.4,13.0,50,0.00,,---,0.00,VWS V14.00,2013-03-21 20:20:00,
2013-03-21 15:30:00,67.3,48.0,29.63,SSW,204,7.4,14.3,50,0.00,,---,0.00,VWS V14.00,2013-03-21 20:30:00,
2013-03-21 15:40:00,67.5,48.2,29.63,SW,230,5.4,15.2,50,0.00,,---,0.00,VWS V14.00,2013-03-21 20:40:00,
2013-03-21 15:50:00,67.8,49.0,29.60,SW,214,5.8,14.8,51,0.00,,---,0.00,VWS V14.00,2013-03-21 20:50:00,
2013-03-21 16:00:00,67.8,49.6,29.60,SW,218,6.9,20.1,52,0.00,,---,0.00,VWS V14.00,2013-03-21 21:00:00,
2013-03-21 16:10:00,68.0,49.7,29.60,SSW,205,8.7,15.9,52,0.00,,---,0.00,VWS V14.00,2013-03-21 21:10:00,
2013-03-21 16:20:00,68.0,50.2,29.60,South,180,9.6,15.4,53,0.00,,---,0.00,VWS V14.00,2013-03-21 21:20:00,
2013-03-21 16:30:00,68.2,50.4,29.60,SSW,198,10.1,13.4,53,0.00,,---,0.00,VWS V14.00,2013-03-21 21:30:00,
2013-03-21 16:40:00,68.2,50.9,29.60,SE,138,7.4,14.8,54,0.00,,---,0.00,VWS V14.00,2013-03-21 21:40:00,
2013-03-21 16:50:00,68.4,51.1,29.60,SSW,193,8.7,15.2,54,0.00,,---,0.00,VWS V14.00,2013-03-21 21:50:00,
2013-03-21 17:00:00,68.7,51.4,29.60,SE,146,14.3,14.8,54,0.00,,---,0.00,VWS V14.00,2013-03-21 22:00:00,
2013-03-21 17:10:00,68.5,51.2,29.57,SSW,198,17.2,17.2,54,0.00,,---,0.00,VWS V14.00,2013-03-21 22:10:00,
2013-03-21 17:20:00,68.7,51.4,29.57,South,176,7.4,17.7,54,0.00,,---,0.00,VWS V14.00,2013-03-21 22:20:00,
2013-03-21 17:30:00,68.7,51.4,29.57,SSW,199,6.3,15.4,54,0.00,,---,0.00,VWS V14.00,2013-03-21 22:30:00,
2013-03-21 17:40:00,68.9,52.1,29.57,South,182,6.7,17.2,55,0.00,,---,0.00,VWS V14.00,2013-03-21 22:40:00,
2013-03-21 17:50:00,68.9,52.1,29.57,SSW,192,7.4,14.8,55,0.00,,---,0.00,VWS V14.00,2013-03-21 22:50:00,
2013-03-21 18:00:00,68.9,52.1,29.57,SSE,167,8.3,11.6,55,0.00,,---,0.00,VWS V14.00,2013-03-21 23:00:00,
2013-03-21 18:10:00,69.4,52.6,29.54,SSW,211,9.6,12.5,55,0.00,,---,0.00,VWS V14.00,2013-03-21 23:10:00,
2013-03-21 18:20:00,69.4,52.6,29.54,South,172,7.4,13.4,55,0.00,,---,0.00,VWS V14.00,2013-03-21 23:20:00,
2013-03-21 18:30:00,69.3,52.4,29.54,SSW,199,6.9,15.2,55,0.00,,---,0.00,VWS V14.00,2013-03-21 23:30:00,
2013-03-21 18:40:00,69.3,52.4,29.54,SSW,196,9.2,14.3,55,0.00,,---,0.00,VWS V14.00,2013-03-21 23:40:00,
2013-03-21 18:50:00,69.1,52.2,29.54,SSE,148,5.4,15.2,55,0.00,,---,0.00,VWS V14.00,2013-03-21 23:50:00,
2013-03-21 19:00:00,69.1,52.7,29.54,SE,146,4.5,11.2,56,0.00,,---,0.00,VWS V14.00,2013-03-22 00:00:00,
2013-03-21 19:10:00,68.9,53.1,29.54,SW,223,6.3,12.1,57,0.00,,---,0.00,VWS V14.00,2013-03-22 00:10:00,
2013-03-21 19:20:00,68.7,52.9,29.54,SSE,166,6.3,11.6,57,0.00,,---,0.00,VWS V14.00,2013-03-22 00:20:00,
2013-03-21 19:30:00,68.5,52.7,29.54,South,187,5.8,13.0,57,0.00,,---,0.00,VWS V14.00,2013-03-22 00:30:00,
2013-03-21 19:40:00,68.4,53.0,29.54,SW,236,9.2,12.1,58,0.00,,---,0.00,VWS V14.00,2013-03-22 00:40:00,
2013-03-21 19:50:00,68.0,52.7,29.54,SSW,197,8.7,13.0,58,0.00,,---,0.00,VWS V14.00,2013-03-22 00:50:00,
2013-03-21 20:00:00,68.0,52.7,29.54,SSE,166,4.5,12.1,58,0.00,,---,0.00,VWS V14.00,2013-03-22 01:00:00,
2013-03-21 20:10:00,67.8,53.0,29.54,SSE,148,6.9,6.9,59,0.00,,---,0.00,VWS V14.00,2013-03-22 01:10:00,
2013-03-21 20:20:00,67.8,53.0,29.54,SSE,147,5.4,14.3,59,0.00,,---,0.00,VWS V14.00,2013-03-22 01:20:00,
2013-03-21 20:30:00,67.6,53.3,29.54,SSW,203,5.8,13.4,60,0.00,,---,0.00,VWS V14.00,2013-03-22 01:30:00,
2013-03-21 20:40:00,67.5,53.1,29.54,SSE,147,7.4,13.0,60,0.00,,---,0.00,VWS V14.00,2013-03-22 01:40:00,
2013-03-21 20:50:00,67.5,53.6,29.54,SSE,159,5.8,13.4,61,0.00,,---,0.00,VWS V14.00,2013-03-22 01:50:00,
2013-03-21 21:00:00,67.3,53.4,29.54,SSW,193,5.8,13.0,61,0.00,,---,0.00,VWS V14.00,2013-03-22 02:00:00,
2013-03-21 21:10:00,67.1,53.7,29.54,SSE,157,6.9,13.4,62,0.00,,---,0.00,VWS V14.00,2013-03-22 02:10:00,
2013-03-21 21:20:00,66.9,53.9,29.54,South,182,11.0,13.0,63,0.00,,---,0.00,VWS V14.00,2013-03-22 02:20:00,
2013-03-21 21:30:00,66.7,53.8,29.54,SSE,161,7.4,11.6,63,0.00,,---,0.00,VWS V14.00,2013-03-22 02:30:00,
2013-03-21 21:40:00,66.6,54.0,29.54,SSW,208,9.2,13.4,64,0.00,,---,0.00,VWS V14.00,2013-03-22 02:40:00,
2013-03-21 21:50:00,66.6,54.4,29.54,SE,126,6.7,14.8,65,0.00,,---,0.00,VWS V14.00,2013-03-22 02:50:00,
2013-03-21 22:00:00,66.4,54.3,29.54,SSW,195,8.7,14.3,65,0.00,,---,0.00,VWS V14.00,2013-03-22 03:00:00,
2013-03-21 22:10:00,66.4,54.7,29.57,SSE,149,8.7,17.7,66,0.00,,---,0.00,VWS V14.00,2013-03-22 03:10:00,
2013-03-21 22:20:00,66.2,54.9,29.57,SSE,161,5.8,13.9,67,0.00,,---,0.00,VWS V14.00,2013-03-22 03:20:00,
2013-03-21 22:30:00,66.0,54.8,29.57,SSW,204,6.3,13.0,67,0.00,,---,0.00,VWS V14.00,2013-03-22 03:30:00,
2013-03-21 22:40:00,66.0,55.2,29.57,SSE,148,5.8,12.5,68,0.00,,---,0.00,VWS V14.00,2013-03-22 03:40:00,
2013-03-21 22:50:00,65.8,55.4,29.57,SSW,210,7.8,13.0,69,0.00,,---,0.00,VWS V14.00,2013-03-22 03:50:00,
2013-03-21 23:00:00,65.7,55.2,29.57,SSW,202,6.3,13.0,69,0.00,,---,0.00,VWS V14.00,2013-03-22 04:00:00,
2013-03-21 23:10:00,65.7,55.6,29.57,South,176,6.3,14.8,70,0.00,,---,0.00,VWS V14.00,2013-03-22 04:10:00,
2013-03-21 23:20:00,65.5,55.5,29.57,SSW,208,6.3,12.5,70,0.00,,---,0.00,VWS V14.00,2013-03-22 04:20:00,
2013-03-21 23:30:00,65.5,55.8,29.57,SSW,201,9.2,15.2,71,0.00,,---,0.00,VWS V14.00,2013-03-22 04:30:00,
2013-03-21 23:40:00,65.5,55.8,29.57,SW,222,5.4,11.6,71,0.00,,---,0.00,VWS V14.00,2013-03-22 04:40:00,
2013-03-21 23:50:00,65.3,56.0,29.57,South,177,7.4,11.6,72,0.00,,---,0.00,VWS V14.00,2013-03-22 04:50:00,